Lapse_Rate
4.8 4.9 4.9 4.9 5.1 5.6 5.3 5.2 5.2 5.2 5.3 5.6 5.7 5.3 5.5 5.8 5.7 5.8 5.9 5.9 5.8 5.8 5.8 6.0 6.2 6.4 6.6 6.5 6.3 6.0 6.1 5.8 5.7 5.9 5.9 5.8 5.6 5.6 5.7 5.6 5.4 5.5 5.4
4.9 5.0 4.9 5.1 5.1 5.1 5.4 5.3 5.3 5.4 5.6 5.5 5.5 5.4 5.6 5.6 5.6 5.7 5.8 5.8 5.8 5.9 6.0 6.1 6.3 6.5 6.5 6.6 6.6 6.3 6.1 5.9 5.7 5.9 5.9 5.8 5.5 5.6 5.7 5.2 5.5 5.5 5.2
5.2 5.2 5.3 5.1 5.1 5.2 5.2 5.2 5.4 5.6 5.8 5.6 5.5 5.6 5.7 5.6 5.8 5.8 5.9 5.8 5.8 5.9 6.0 6.1 6.5 6.5 6.5 6.5 6.7 6.4 6.1 6.0 5.8 6.0 6.1 5.6 5.3 5.6 5.5 5.3 5.4 5.2 5.3
5.1 5.1 5.0 5.0 5.1 5.2 5.3 5.5 5.7 5.7 5.6 5.7 5.7 5.8 5.8 5.8 6.0 6.1 6.0 6.0 5.9 5.9 6.0 6.2 6.5 6.4 6.6 6.6 6.5 6.4 6.3 6.2 5.9 5.8 5.9 5.4 5.3 5.7 5.8 5.5 5.2 5.4 5.3
5.2 5.1 5.0 5.0 5.1 5.3 5.4 5.7 5.7 5.9 6.0 6.0 6.0 6.0 5.9 5.9 6.0 6.1 6.1 6.2 6.1 6.0 6.1 6.3 6.4 6.5 6.7 6.7 6.6 6.4 6.4 6.3 6.0 5.9 5.6 5.6 5.2 5.7 5.8 5.7 5.5 5.4 5.1
5.3 5.1 5.2 5.3 5.3 5.4 5.5 5.8 6.0 6.1 6.1 6.1 6.1 6.0 5.9 6.0 6.1 6.1 6.2 6.2 6.2 6.2 6.3 6.4 6.5 6.7 6.6 6.6 6.6 6.4 6.4 6.4 6.2 6.1 5.8 5.8 5.7 6.0 5.9 5.7 5.7 5.6 5.5
5.5 5.4 5.4 5.5 5.5 5.6 5.8 5.9 6.1 6.2 6.2 6.2 6.1 6.1 6.1 6.2 6.2 6.3 6.4 6.4 6.4 6.3 6.3 6.4 6.5 6.6 6.7 6.6 6.5 6.5 6.4 6.4 6.5 6.2 5.9 5.8 6.0 6.0 6.1 5.9 5.8 5.8 5.7
5.7 5.6 5.7 5.8 5.7 5.8 5.9 6.0 6.1 6.3 6.3 6.2 6.3 6.3 6.3 6.3 6.4 6.4 6.5 6.5 6.5 6.5 6.4 6.5 6.4 6.4 6.4 6.5 6.5 6.4 6.4 6.4 6.4 6.7 5.9 5.8 6.0 6.1 6.1 6.0 5.9 6.1 5.8
5.8 5.9 6.0 6.0 6.0 6.1 6.1 6.2 6.3 6.4 6.4 6.3 6.3 6.2 6.3 6.3 6.3 6.3 6.4 6.4 6.5 6.5 6.4 6.4 6.4 6.4 6.3 6.3 6.4 6.3 6.3 6.3 6.0 5.7 6.2 5.9 5.9 6.2 6.1 6.1 5.9 6.0 6.0
6.1 6.2 6.4 6.3 6.2 6.1 6.1 6.2 6.4 6.4 6.4 6.2 6.2 6.2 6.2 6.1 6.1 6.3 6.4 6.4 6.3 6.4 6.4 6.4 6.4 6.3 6.2 6.2 6.3 6.1 6.1 6.3 6.0 6.2 6.0 6.0 6.0 6.1 6.2 6.2 6.0 5.9 5.9
6.1 6.2 6.0 6.4 6.4 6.3 6.3 6.2 6.4 6.3 6.2 6.1 6.1 6.0 5.9 5.8 6.1 5.9 6.1 6.0 6.0 6.1 6.1 6.2 6.2 6.1 6.1 6.0 5.9 5.8 5.8 5.7 5.6 6.2 5.8 5.9 5.9 5.9 6.1 6.0 6.1 6.0 5.8
5.6 5.4 5.6 6.3 6.3 6.2 6.3 6.4 6.3 6.2 6.0 6.0 6.0 5.9 5.8 5.7 5.6 5.7 5.6 5.7 5.9 5.8 5.8 5.9 5.9 5.9 5.9 5.5 5.4 5.4 5.1 5.7 5.5 5.2 5.9 5.8 5.8 5.9 6.0 6.2 6.1 6.1 6.1
5.2 5.2 6.3 6.2 6.2 6.3 6.1 6.3 6.2 6.0 6.0 6.0 6.0 6.0 5.8 5.7 5.9 5.7 5.7 6.1 5.7 5.6 6.1 5.9 5.6 5.6 5.4 5.7 5.1 5.0 5.2 5.4 4.9 4.7 5.7 5.6 5.7 6.0 6.0 6.0 6.2 6.1 6.2
5.2 5.3 6.1 6.5 6.4 6.3 6.3 6.2 5.2 4.8 4.8 5.1 5.7 5.8 5.8 5.8 5.6 5.5 5.7 5.7 5.4 5.2 5.2 5.4 5.6 5.7 5.8 5.7 5.5 5.6 5.4 5.2 5.3 5.3 5.2 5.5 5.8 5.8 6.1 6.1 6.1 6.3 6.3
5.4 5.2 5.5 6.3 6.5 6.6 6.2 5.7 4.9 4.8 4.9 4.6 4.8 5.6 5.6 5.3 5.4 5.5 5.7 5.7 5.9 5.6 5.5 5.3 5.7 5.7 5.5 5.2 5.1 6.0 5.8 5.7 5.8 5.7 5.5 5.8 5.7 5.7 5.9 6.0 6.1 6.1 6.2
5.5 5.3 5.3 6.4 6.6 6.5 6.4 6.2 6.0 5.6 5.6 5.0 4.6 4.6 5.5 5.6 5.6 5.6 5.5 5.6 5.7 5.7 5.8 5.6 5.8 5.7 5.5 5.4 5.2 6.0 6.2 5.9 6.0 5.9 5.6 5.8 5.8 5.9 5.8 5.9 5.8 6.1 6.1
5.8 5.6 6.0 6.7 6.8 6.6 6.4 6.1 6.1 6.0 5.9 4.8 4.7 5.1 5.8 5.9 5.7 5.6 5.7 5.7 5.7 5.8 5.7 5.8 5.7 5.6 5.7 4.6 5.0 6.1 5.6 5.6 6.2 6.2 6.1 5.5 5.7 5.8 6.0 5.9 6.0 6.0 6.0
6.6 6.8 6.7 6.4 6.6 6.6 6.4 6.3 6.2 6.3 5.4 5.4 5.1 5.6 5.9 5.9 5.8 5.8 5.7 5.3 5.5 5.8 5.9 5.7 5.7 5.6 5.5 5.9 5.9 5.6 5.8 6.0 6.0 6.1 6.2 6.3 5.7 5.2 5.8 5.7 5.7 5.9 5.9
6.8 6.9 6.7 6.7 6.5 6.6 6.4 6.4 6.3 6.2 6.1 5.7 5.5 5.7 5.4 5.9 5.8 5.9 5.8 5.9 5.9 5.9 5.9 5.9 5.7 6.0 6.1 6.4 6.5 5.8 5.3 4.8 5.5 4.8 6.1 5.9 6.1 5.6 4.9 6.1 6.1 5.9 5.8
6.9 6.8 6.8 6.7 6.6 6.5 6.5 6.3 6.4 6.3 6.2 6.0 5.9 5.6 6.1 6.1 6.0 6.0 5.9 5.9 5.9 5.8 6.1 6.0 6.2 6.3 6.2 6.4 6.3 6.1 6.1 5.1 5.5 4.5 4.9 5.0 6.1 5.9 5.4 6.0 6.1 6.2 6.1
7.1 7.1 7.0 7.0 6.9 6.7 6.7 6.3 6.1 6.2 6.0 5.8 5.1 5.3 6.0 6.2 6.2 6.1 5.9 6.2 6.1 5.9 6.1 6.2 6.4 6.4 6.3 6.0 5.7 4.8 4.8 6.2 5.3 4.7 5.0 5.9 6.0 6.1 6.2 6.2 6.1 6.0 6.2
7.1 7.2 7.3 7.2 7.1 6.8 6.7 6.2 6.1 5.8 5.3 4.8 4.8 5.7 6.1 6.2 6.4 6.4 6.3 6.3 6.4 6.1 6.5 6.4 6.3 6.1 5.9 6.1 5.8 5.8 5.0 4.9 5.1 4.8 5.7 6.0 5.9 5.8 5.9 5.9 5.8 5.7 6.0
7.1 7.1 7.0 7.1 7.0 6.8 6.6 6.4 6.2 5.9 5.8 5.2 4.8 6.2 6.5 6.5 6.7 6.6 6.5 6.5 6.6 6.5 6.5 6.5 6.4 6.2 5.9 5.7 5.8 5.8 4.8 5.1 5.0 4.8 5.1 5.8 6.0 6.2 5.9 5.8 5.6 5.6 5.4
7.2 7.2 7.1 7.0 6.9 6.8 6.7 6.6 6.6 6.2 6.2 5.2 5.0 5.2 6.5 6.7 6.8 6.8 6.7 6.6 6.6 6.6 6.6 6.6 6.5 6.4 6.1 5.7 6.0 6.3 5.9 5.8 5.5 4.7 4.7 4.7 4.9 5.4 5.9 5.7 5.5 5.7 5.5
7.3 7.2 7.1 6.9 6.8 6.9 6.9 6.7 6.7 6.5 5.8 5.1 5.1 5.6 6.5 6.7 6.6 6.6 6.5 6.5 6.6 6.6 6.4 6.4 6.4 6.3 6.1 5.8 5.7 5.2 5.6 6.0 6.0 5.5 4.5 4.2 4.2 4.2 4.4 5.3 5.4 5.2 5.8
7.2 7.3 7.1 7.0 7.0 7.2 7.2 7.0 7.0 7.0 6.7 5.7 6.4 6.4 6.6 6.6 6.6 6.6 6.6 6.6 6.6 6.5 6.5 6.4 6.3 6.3 6.2 6.0 5.8 5.8 5.2 4.7 4.2 4.2 4.3 4.3 4.3 4.1 4.1 3.9 4.5 4.8 5.1
Wind_Speed
12 18 17 18 18 20 17 17 15 17 17 16 17 17 18 16 17 16 16 16 15 16 15 15 15 15 15 14 13 11 10 8 8 7 8 10 10 8 5 5 3 13 12
15 19 16 16 17 17 16 16 15 16 15 15 16 17 17 16 16 15 15 14 15 14 14 13 14 14 13 13 13 12 9 7 5 3 6 10 13 9 7 8 8 15 12
17 21 18 15 16 16 16 15 15 15 15 14 14 15 15 15 14 14 13 12 12 12 12 12 12 12 12 12 12 10 8 6 1 7 8 10 15 12 8 11 14 14 12
20 21 18 13 14 15 14 15 15 14 14 13 13 12 12 12 12 12 11 10 11 10 10 9 10 11 11 10 10 9 5 3 2 8 11 13 15 13 11 11 12 12 12
16 21 17 12 14 13 13 15 14 13 12 12 11 10 10 10 10 10 9 9 9 9 7 8 8 8 8 8 8 7 4 2 2 8 8 6 5 14 10 10 11 11 9
15 19 16 13 13 13 13 14 14 13 11 10 9 8 8 8 9 8 8 7 7 7 6 7 7 7 7 7 7 5 3 2 7 11 14 5 14 14 9 9 11 13 12
15 20 18 13 13 13 14 14 14 12 10 9 8 7 7 6 7 6 6 5 5 5 4 5 6 7 7 5 5 5 5 5 6 5 5 6 14 13 10 10 9 11 11
15 19 17 13 13 13 13 13 12 10 9 8 8 7 5 4 4 5 5 4 3 4 4 5 5 6 6 5 4 4 5 8 9 3 7 9 14 11 11 12 11 10 10
16 13 17 16 14 12 12 13 11 9 8 7 7 6 4 3 2 2 3 3 3 3 5 5 5 4 3 3 3 3 7 9 11 7 9 9 13 10 10 12 12 11 10
17 12 15 18 15 16 15 13 11 8 8 7 6 6 6 7 7 8 5 3 1 2 3 2 1 0 3 5 4 5 11 13 12 11 13 12 12 10 10 10 11 12 12
6 14 11 14 15 17 17 14 12 9 7 7 8 7 9 9 12 7 8 4 1 2 0 2 2 7 7 7 8 8 12 5 6 2 11 15 11 9 10 11 10 11 13
15 13 13 13 12 13 15 14 12 12 12 12 12 10 11 2 4 4 2 7 6 7 8 9 10 12 10 11 10 8 7 9 12 8 13 15 10 9 11 12 11 11 12
14 13 15 11 12 12 11 14 13 14 14 12 8 7 8 2 6 10 12 10 12 14 7 12 13 11 9 9 11 10 6 7 9 5 16 13 9 5 11 12 12 12 13
15 14 13 18 10 8 8 11 12 10 11 11 13 9 9 7 7 5 5 6 10 10 1 5 6 6 5 6 7 8 10 9 7 10 14 13 8 3 10 12 15 15 14
16 16 16 14 11 9 7 10 8 7 8 9 7 11 11 9 2 4 5 7 6 5 7 6 2 4 5 7 9 6 9 10 7 7 3 13 10 5 9 12 11 14 14
16 15 15 15 12 9 9 6 4 7 6 9 9 8 10 11 6 5 3 6 6 2 9 7 7 6 4 3 5 6 8 7 5 5 9 8 14 12 9 12 12 13 15
14 15 14 13 14 14 11 8 9 10 12 9 9 6 7 9 6 6 6 4 6 4 4 8 5 3 6 5 4 5 8 6 5 6 7 7 13 15 13 13 14 12 14
16 16 15 14 16 15 11 11 12 13 8 8 7 8 11 8 9 8 6 6 2 4 2 3 4 6 6 6 5 4 5 5 7 4 4 5 6 1 15 13 11 14 13
17 17 16 14 14 15 14 11 11 10 9 2 8 7 13 12 10 9 8 4 6 5 2 5 5 5 4 6 6 4 3 3 4 8 4 3 8 5 6 14 13 12 12
18 16 16 14 12 10 8 7 7 8 6 12 10 13 9 5 11 9 8 2 9 5 5 4 2 5 6 6 6 5 2 3 4 3 3 5 5 4 8 7 8 13 11
18 18 16 15 13 10 10 8 10 10 10 10 9 12 6 8 12 6 9 7 6 8 2 5 5 6 4 1 5 4 4 6 4 2 6 5 3 5 5 5 8 6 9
20 18 16 15 14 12 11 10 10 8 9 8 6 6 10 12 12 11 7 6 3 5 0 2 3 5 4 4 5 4 3 5 1 6 4 3 5 5 6 6 6 7 6
20 19 17 16 15 14 15 9 7 5 6 5 8 9 7 10 6 7 4 6 3 2 3 3 4 1 6 1 2 4 3 3 4 6 6 5 2 3 4 4 5 4 4
20 20 17 17 16 15 15 12 13 9 10 10 8 9 9 14 12 11 9 4 1 5 3 3 3 4 3 3 3 5 2 4 5 1 4 7 4 4 4 6 2 5 2
21 20 18 17 16 15 15 15 11 12 10 8 8 6 4 6 7 8 6 5 3 4 4 4 1 3 2 5 2 2 5 3 5 4 6 1 2 4 4 3 3 7 2
21 21 18 19 17 17 16 16 14 12 12 8 8 7 7 8 8 7 9 7 5 4 3 4 3 4 5 4 6 2 3 3 1 2 4 5 5 4 3 1 4 2 7
Wind_Direction
131 117 122 125 126 128 122 110 112 110 105 102 99 93 88 89 86 88 88 86 83 80 77 73 68 63 59 58 60 67 76 78 87 98 115 109 95 81 69 62 273 101 117
132 124 125 110 116 121 112 111 111 112 109 104 99 93 89 88 88 88 84 84 81 79 73 68 62 60 56 55 55 62 72 81 87 174 165 132 103 79 65 70 44 107 114
140 130 122 107 114 112 116 119 124 120 116 108 101 98 92 87 89 86 84 84 82 76 70 64 59 54 52 49 48 53 63 77 127 262 246 197 96 86 83 84 89 108 116
133 139 122 113 120 115 117 126 130 129 121 116 108 105 95 89 86 84 84 85 79 73 64 58 56 49 43 40 44 44 42 75 206 263 270 76 91 98 94 97 101 115 121
130 130 114 123 125 124 122 127 134 129 129 127 119 107 95 93 87 82 81 81 77 68 57 47 40 34 35 31 36 39 37 24 247 287 312 75 66 106 111 123 134 125 141
128 122 129 134 135 137 132 134 136 132 132 128 122 107 101 95 86 83 82 77 67 59 41 28 23 15 19 21 29 27 16 292 262 240 54 99 86 116 125 113 110 110 124
138 132 137 138 142 145 142 139 132 125 124 130 127 120 113 102 94 99 95 71 56 47 19 3 3 6 7 18 22 16 345 301 297 93 185 25 108 126 138 133 131 128 129
141 143 136 136 145 149 148 140 129 121 131 135 140 135 140 127 117 118 98 70 50 16 347 341 356 8 9 14 17 10 314 291 243 31 164 102 122 137 143 150 142 144 146
127 127 139 144 141 141 147 150 146 141 140 144 150 160 169 175 165 140 127 81 59 5 2 359 11 17 22 46 28 319 279 281 295 128 146 113 139 148 159 160 156 152 157
144 151 148 144 151 156 154 155 163 160 157 162 174 179 197 204 193 204 176 127 58 27 5 9 45 324 197 170 166 243 263 272 258 110 115 119 141 157 166 169 165 168 163
142 142 157 138 154 151 152 158 165 170 177 182 184 194 217 216 206 180 147 141 256 213 270 134 205 245 237 224 214 247 270 285 342 66 109 131 143 176 170 175 182 171 175
182 160 137 141 159 173 158 151 177 180 190 197 194 175 237 198 2 298 92 167 177 211 210 191 211 239 238 224 202 259 331 4 286 104 100 133 137 194 184 180 187 184 182
162 155 134 136 171 187 130 168 183 180 191 196 203 227 238 325 224 199 194 194 180 203 191 217 219 203 12 348 333 345 348 311 325 68 133 133 128 186 193 185 185 192 188
164 155 179 155 196 185 179 193 190 190 207 197 195 198 270 213 233 256 65 284 29 360 357 6 90 5 300 320 306 358 330 324 340 323 127 119 135 172 207 199 191 191 197
173 175 182 161 175 183 199 196 201 221 200 213 187 184 250 241 72 332 352 307 326 341 356 303 335 338 320 302 3 339 333 310 321 283 329 135 137 167 206 209 207 198 197
177 181 177 172 167 221 192 244 237 208 232 229 227 192 189 275 117 286 240 273 294 343 356 330 28 323 291 262 258 6 311 307 340 308 292 163 155 171 189 207 215 210 206
183 182 183 189 175 194 207 193 226 234 224 237 225 190 207 220 272 277 283 298 277 42 252 252 300 244 257 292 332 320 292 355 344 341 292 295 159 175 182 191 199 215 217
188 188 198 192 186 188 190 217 220 227 232 246 223 187 195 210 233 254 252 246 96 275 322 313 310 324 331 341 309 307 324 311 32 243 226 342 358 228 189 176 187 208 219
195 188 197 204 201 184 191 211 214 229 234 298 281 226 184 200 231 250 271 315 341 298 288 266 290 260 338 310 312 315 332 2 316 78 35 343 52 316 23 168 179 187 204
188 194 198 202 213 198 192 217 238 212 227 230 226 248 194 211 257 235 261 293 288 247 274 231 300 337 312 263 322 322 15 12 342 44 130 90 69 333 36 6 223 181 180
195 196 196 200 192 204 198 192 220 221 209 221 232 120 182 212 231 220 254 207 233 260 49 345 312 282 312 22 288 251 158 190 147 321 55 19 16 51 29 27 342 16 140
197 192 189 197 194 194 193 211 219 219 216 221 222 195 216 202 225 196 244 283 183 314 204 7 309 314 293 87 303 289 246 164 241 98 61 66 360 24 54 64 58 10 25
196 196 192 192 192 190 223 201 213 267 255 227 210 181 199 236 235 216 227 258 114 311 271 161 213 321 299 84 68 317 292 46 214 130 170 103 308 61 1 123 71 70 4
199 193 196 190 196 195 197 225 190 210 219 223 216 215 182 192 205 189 207 192 181 302 65 187 208 290 236 300 152 157 357 5 340 111 192 147 197 189 89 318 46 139 344
199 196 195 191 195 207 187 222 194 218 213 223 220 155 205 155 215 204 182 175 205 249 153 316 249 230 241 298 267 289 141 225 153 299 325 40 285 169 167 258 25 308 189
202 198 195 188 194 199 192 199 227 199 235 213 208 188 200 210 181 194 188 178 199 235 188 227 237 239 275 327 312 328 279 298 267 295 300 309 316 274 222 231 259 294 323